STARLINK-30251 (57532 NORAD) Tracking and Keplerian Element Data

This shows tracking and keplerian element data for the satellite.

Feedback or suggestion? Click here.




ElementValue
Catalog57532
NameSTARLINK-30251
Epoch Orbit2396
Epoch Day12.91257244
Epoch Year2024
RAAN319.7848
Inclination43.0021
Eccentricity8.94E-05
Argument of Perigee227.0935
Mean Anonmoly132.9833
Mean Motion15.02536503
Decay Rate6.84E-06
L11 57532U 23115M 24012.91257244 .00000684 00000+0 65686-4 0 9999
L22 57532 43.0021 319.7848 0000894 227.0935 132.9833 15.02536503 23962



Live tracking and technical data element details for STARLINK-30251 (NORAD 57532). STARLINK-30251 can be tracked NOW for your location showing map with azimuth and elevation plus other details from your city location.







IsCatalogInMostPopularTable: catalog: 57532, numindb: 24
Update: records affected: 1



GetName: 57532 STARLINK-30251

Hit Count: updated at: Thu, 29 Feb 2024 11:57:24 GMT